Location: Observatoire de l'Aigle
(47.0607°N, 71.3152°W)
Time: 11:20:31
(UTC-04:00)

Amateur Radio Satellites - All Passes

Search period start: 29 March 2017 10:50
Search period end: 30 March 2017 10:50
Location: Observatoire de l'Aigle, 47.0607°N, 71.3152°W

Satellite Date Start Highest point End Downlink Frequencies (MHz)
Time Altitude Azimuth
PCSat 29 Mar 10:50:38 10:55:34 35° 316° (NW) 11:00:33 145.827
TIGRISAT 29 Mar 10:52:04 10:56:10 30° 265° (W) 11:00:15 435.000
UWE-3 29 Mar 10:52:45 10:54:50 13° 301° (WNW) 10:56:52 435.000/436.395/437.385
EO-79 29 Mar 10:54:52 10:58:44 33° 68° (ENE) 11:02:35 145.935-145.965
RS-15 29 Mar 10:57:09 11:06:13 26° 100° (E) 11:15:25 29.354- 29.394
PRISM 29 Mar 10:57:10 10:58:29 11° 271° (W) 10:59:49 437.425
UNISAT 6 29 Mar 11:03:48 11:07:27 22° 268° (W) 11:11:04 437.425
HO-68 29 Mar 11:11:55 11:15:29 15° 316° (NW) 11:19:02 435.675
Oscar 11 29 Mar 11:12:41 11:15:28 17° 298° (WNW) 11:18:14 .
NO-84 29 Mar 11:20:04 11:22:45 30° 22° (NNE) 11:25:35 435.350 FM
POLYITAN 1 29 Mar 11:23:30 11:27:45 66° 73° (ENE) 11:32:01 437.675
QB50P2 29 Mar 11:28:15 11:32:32 79° 75° (ENE) 11:36:51 145.880/145.840
DELFI C3 29 Mar 11:31:34 11:34:53 25° 293° (WNW) 11:38:11 145.870
DUCHIFAT 1 29 Mar 11:35:36 11:39:51 73° 74° (ENE) 11:44:07 145.980
BUGSAT 1 29 Mar 11:39:40 11:43:21 30° 67° (ENE) 11:47:05 437.445
VELOX 1 29 Mar 11:47:29 11:48:54 11° 87° (E) 11:50:19 145.980
AIST 2D 29 Mar 11:51:34 11:54:44 31° 263° (W) 11:57:56 435.315
SPROUT 29 Mar 12:07:09 12:09:48 16° 90° (E) 12:12:25 437.525
LO-87 29 Mar 12:09:06 12:12:44 65° 286° (WNW) 12:16:21 145.935 - 145.965
AO-7 29 Mar 12:09:55 12:12:20 12° 31° (NNE) 12:14:45 .
FO-29 29 Mar 12:18:44 12:23:37 18° 273° (W) 12:28:18 435.910
ESTCUBE 1 29 Mar 12:22:42 12:27:14 78° 103° (ESE) 12:31:45 437.505/2401.250
NANOSAT C BR1 29 Mar 12:23:58 12:27:49 32° 264° (W) 12:31:42 145.865
Oscar 19 29 Mar 12:24:24 12:28:55 32° 64° (ENE) 12:33:27 437.125/150
EO-79 29 Mar 12:30:55 12:34:31 26° 265° (W) 12:38:09 145.935-145.965
PCSat 29 Mar 12:38:39 12:40:41 12° 340° (NNW) 12:42:43 145.827
DX 1 29 Mar 12:48:50 12:52:06 20° 93° (E) 12:55:21 434.975-435.025
50 SAT 29 Mar 12:49:00 12:52:04 27° 96° (E) 12:55:05 437.505
NO-84 29 Mar 12:57:25 13:00:22 46° 220° (SW) 13:03:34 435.350 FM
POLYITAN 1 29 Mar 13:01:48 13:03:59 14° 271° (W) 13:06:10 437.675
Gurwin Techsat 1B 29 Mar 13:03:31 13:08:30 42° 67° (ENE) 13:13:30 435.225
RS-15 29 Mar 13:04:49 13:16:54 84° 124° (ESE) 13:29:21 29.354- 29.394
QB50P2 29 Mar 13:07:33 13:08:53 11° 272° (W) 13:10:13 145.880/145.840
DUCHIFAT 1 29 Mar 13:14:20 13:16:01 12° 272° (W) 13:17:43 145.980
BUGSAT 1 29 Mar 13:14:57 13:18:41 29° 265° (W) 13:22:26 437.445
VELOX 1 29 Mar 13:21:28 13:25:58 84° 285° (WNW) 13:30:26 145.980
UKube-1 29 Mar 13:22:02 13:25:53 30° 96° (E) 13:29:43 .
SPROUT 29 Mar 13:41:51 13:46:04 56° 288° (WNW) 13:50:15 437.525
AO-7 29 Mar 13:55:21 14:02:46 38° 55° (NE) 14:10:09 .
ESTCUBE 1 29 Mar 14:01:02 14:03:26 14° 301° (WNW) 14:05:50 437.505/2401.250
Oscar 19 29 Mar 14:03:25 14:08:08 37° 263° (W) 14:12:55 437.125/150
ITAMSAT 1 29 Mar 14:18:02 14:22:47 36° 65° (ENE) 14:27:33 435.822/435.867
50 SAT 29 Mar 14:22:13 14:24:59 22° 293° (WNW) 14:27:45 437.505
DX 1 29 Mar 14:24:18 14:28:31 46° 290° (WNW) 14:32:41 434.975-435.025
SO-50 29 Mar 14:26:28 14:31:03 62° 123° (ESE) 14:35:36 436.795
BEESAT 29 Mar 14:41:20 14:44:38 18° 91° (E) 14:47:54 436.000
Gurwin Techsat 1B 29 Mar 14:43:56 14:48:34 30° 265° (W) 14:53:14 435.225
UKube-1 29 Mar 14:58:05 15:01:52 30° 294° (WNW) 15:05:38 .
ITUPSAT 1 29 Mar 14:59:17 15:03:17 26° 94° (E) 15:07:16 437.325
VELOX 1 29 Mar 15:00:08 15:01:41 12° 304° (WNW) 15:03:14 145.980
RS-15 29 Mar 15:19:18 15:30:52 45° 332° (NNW) 15:42:36 29.354- 29.394
O/OREOS (USA 219) 29 Mar 15:21:04 15:22:56 12° 97° (E) 15:24:50 437.305
AO-7 29 Mar 15:46:58 15:55:10 62° 256° (WSW) 16:03:25 .
ITAMSAT 1 29 Mar 15:57:31 16:02:15 34° 264° (W) 16:07:01 435.822/435.867
MOZHAYETS 4 29 Mar 16:05:44 16:10:12 52° 100° (E) 16:14:38
SO-50 29 Mar 16:08:02 16:11:52 25° 323° (NW) 16:15:41 436.795
PCSat 29 Mar 16:08:45 16:12:36 19° 33° (NNE) 16:16:25 145.827
BEESAT 29 Mar 16:18:06 16:22:47 58° 289° (WNW) 16:27:26 436.000
CUTE-I 29 Mar 16:33:16 16:36:34 17° 56° (NE) 16:39:53 437.470
ITUPSAT 1 29 Mar 16:36:47 16:41:15 40° 292° (WNW) 16:45:40 437.325
XW-2F 29 Mar 16:45:46 16:47:23 12° 61° (ENE) 16:49:01 145.980 - 146.000
YUBILEINY 29 Mar 16:50:16 16:56:45 22° 58° (ENE) 17:03:11 435.215
LilacSat-2 29 Mar 16:52:26 16:54:48 16° 63° (ENE) 16:57:09 437.200
O/OREOS (USA 219) 29 Mar 16:57:06 17:01:39 80° 296° (WNW) 17:06:16 437.305
KKS-1 29 Mar 16:59:35 17:03:50 40° 99° (E) 17:08:02 437.445
NUDT-PHONESAT 29 Mar 17:00:35 17:02:44 15° 63° (ENE) 17:04:52 437.300
CUBESAT XI-V 29 Mar 17:06:51 17:11:14 40° 97° (E) 17:15:37 437.345
KAITUO 1B 29 Mar 17:11:35 17:14:17 19° 65° (ENE) 17:16:59 145.475/437.950
XW-2D 29 Mar 17:12:10 17:15:17 24° 67° (ENE) 17:18:23 145.860 - 145.880
XW-2B 29 Mar 17:18:03 17:21:17 27° 68° (ENE) 17:24:31 145.730 - 145.750
DOVE 4 29 Mar 17:20:45 17:25:22 47° 69° (ENE) 17:30:16 437.250
STARS 29 Mar 17:26:23 17:30:27 34° 97° (E) 17:34:28 437.465
XW-2C 29 Mar 17:28:06 17:31:34 35° 70° (ENE) 17:35:03 145.795 - 145.815
RS-15 29 Mar 17:36:29 17:47:26 34° 5° (N) 17:58:16 29.354- 29.394
MOZHAYETS 4 29 Mar 17:43:42 17:47:00 20° 298° (WNW) 17:50:18
AO-7 29 Mar 17:46:39 17:49:40 12° 277° (W) 17:52:42 .
PCSat 29 Mar 17:51:29 17:56:58 74° 56° (NE) 18:02:22 145.827
HO-68 29 Mar 18:06:51 18:13:07 35° 58° (ENE) 18:19:24 435.675
CUTE-I 29 Mar 18:10:32 18:15:55 87° 256° (WSW) 18:21:20 437.470
M-CUBED/EXP-1 PRIME 29 Mar 18:15:33 18:18:00 14° 94° (E) 18:20:26 437.505
XW-2F 29 Mar 18:17:18 18:21:03 64° 258° (WSW) 18:24:48 145.980 - 146.000
LilacSat-2 29 Mar 18:25:02 18:28:44 48° 260° (W) 18:32:26 437.200
NUDT-PHONESAT 29 Mar 18:32:38 18:36:17 50° 261° (W) 18:39:55 437.300
KKS-1 29 Mar 18:36:33 18:40:11 25° 296° (WNW) 18:43:48 437.445
O/OREOS (USA 219) 29 Mar 18:39:33 18:41:52 14° 317° (NW) 18:44:12 437.305
UWE-3 29 Mar 18:40:44 18:42:35 12° 58° (ENE) 18:44:26 435.000/436.395/437.385
CUBESAT XI-V 29 Mar 18:44:34 18:48:26 26° 295° (WNW) 18:52:17 437.345
KAITUO 1B 29 Mar 18:44:37 18:48:05 36° 263° (W) 18:51:34 145.475/437.950
XW-2D 29 Mar 18:46:04 18:49:23 28° 264° (W) 18:52:42 145.860 - 145.880
YUBILEINY 29 Mar 18:46:11 18:54:57 87° 82° (E) 19:03:42 435.215
SEEDS 29 Mar 18:47:51 18:51:16 25° 66° (ENE) 18:54:41 437.485
XW-2B 29 Mar 18:52:15 18:55:27 25° 265° (W) 18:58:39 145.730 - 145.750
DOVE 4 29 Mar 18:59:24 19:03:18 24° 269° (W) 19:07:25 437.250
CUTE 1.7 + AOD 2 29 Mar 19:00:35 19:04:39 49° 72° (ENE) 19:08:43 437.475
STARS 29 Mar 19:02:56 19:06:41 27° 295° (WNW) 19:10:24 437.465
XW-2C 29 Mar 19:03:05 19:05:53 19° 267° (W) 19:08:42 145.795 - 145.815
ZACube-1 29 Mar 19:12:53 19:15:22 15° 60° (ENE) 19:17:50 437.345
CUBEBUG 2 29 Mar 19:18:41 19:23:07 40° 69° (ENE) 19:27:29 437.445
STRAND 1 29 Mar 19:21:40 19:25:49 24° 93° (E) 19:29:57 437.568
XW-2A 29 Mar 19:23:20 19:26:47 69° 258° (WSW) 19:30:14 145.665 - 145.685
PCSat 29 Mar 19:36:00 19:39:46 19° 254° (WSW) 19:43:30 145.827
AO-73 29 Mar 19:38:00 19:41:30 23° 64° (ENE) 19:44:56 145.935
M-CUBED/EXP-1 PRIME 29 Mar 19:48:15 19:52:55 80° 292° (WNW) 19:57:35 437.505
RS-15 29 Mar 19:51:14 20:03:23 56° 38° (NE) 20:15:05 29.354- 29.394
HO-68 29 Mar 19:53:32 20:00:32 57° 258° (WSW) 20:07:36 435.675
CUTE-I 29 Mar 19:54:18 19:56:44 13° 273° (W) 19:59:11 437.470
AAUSAT CUBESAT 2 29 Mar 19:56:28 20:00:30 65° 74° (ENE) 20:04:36 437.432
Tancredo 1 29 Mar 20:02:07 20:05:06 40° 145° (SE) 20:08:06 437.200
AO-85 29 Mar 20:08:17 20:12:22 39° 120° (ESE) 20:16:14 145.980
UWE-3 29 Mar 20:13:42 20:18:21 86° 76° (ENE) 20:22:56 435.000/436.395/437.385
ISS 29 Mar 20:17:59 20:21:08 49° 147° (SSE) 20:24:19 437.550
SEEDS 29 Mar 20:23:03 20:26:50 33° 264° (W) 20:30:37 437.485
Oscar 11 29 Mar 20:32:47 20:37:02 64° 74° (ENE) 20:41:19 .
CUTE 1.7 + AOD 2 29 Mar 20:37:58 20:40:46 17° 269° (W) 20:43:33 437.475
YUBILEINY 29 Mar 20:44:26 20:50:36 22° 283° (WNW) 20:56:47 435.215
DELFI C3 29 Mar 20:45:03 20:48:21 26° 67° (ENE) 20:51:40 145.870
ZACube-1 29 Mar 20:46:35 20:51:07 74° 258° (WSW) 20:55:35 437.345
CUBEBUG 2 29 Mar 20:55:52 20:59:50 26° 267° (W) 21:03:46 437.445
STRAND 1 29 Mar 21:00:19 21:05:14 48° 291° (WNW) 21:10:07 437.568
AO-73 29 Mar 21:13:11 21:17:29 44° 262° (W) 21:21:44 145.935
SO-50 29 Mar 21:15:00 21:18:43 24° 36° (NE) 21:22:25 436.795
M-CUBED/EXP-1 PRIME 29 Mar 21:24:21 21:26:38 14° 309° (NW) 21:28:55 437.505
AAUSAT CUBESAT 2 29 Mar 21:34:35 21:36:26 13° 272° (W) 21:38:16 437.432
Tancredo 1 29 Mar 21:38:07 21:41:12 47° 344° (NNW) 21:44:18 437.200
AO-85 29 Mar 21:49:06 21:52:51 29° 318° (NW) 21:56:26 145.980
ESTCUBE 1 29 Mar 21:50:55 21:53:08 14° 58° (ENE) 21:55:22 437.505/2401.250
UWE-3 29 Mar 21:53:46 21:55:23 12° 273° (W) 21:57:00 435.000/436.395/437.385
ISS 29 Mar 21:54:30 21:57:40 45° 346° (NNW) 22:00:51 437.550
BEESAT 3 29 Mar 21:59:48 22:03:41 60° 123° (ESE) 22:07:38 437.485
RS-15 29 Mar 22:04:18 22:16:15 61° 245° (WSW) 22:27:41 29.354- 29.394
Oscar 11 29 Mar 22:11:19 22:13:36 14° 271° (W) 22:15:54 .
DELFI C3 29 Mar 22:19:41 22:23:05 28° 265° (W) 22:26:31 145.870
BEESAT 2 29 Mar 22:23:39 22:27:25 43° 120° (ESE) 22:31:15 435.950
PRISM 29 Mar 22:31:57 22:36:08 78° 105° (ESE) 22:40:18 437.425
TIGRISAT 29 Mar 22:39:57 22:44:13 46° 98° (E) 22:48:21 435.000
VELOX 1 29 Mar 22:47:03 22:49:46 16° 60° (ENE) 22:52:29 145.980
LO-87 29 Mar 22:47:39 22:51:15 77° 76° (ENE) 22:54:54 145.935 - 145.965
UNISAT 6 29 Mar 22:51:12 22:55:36 65° 102° (ESE) 22:59:53 437.425
SO-50 29 Mar 22:55:05 22:59:34 63° 236° (SW) 23:04:00 436.795
SPROUT 29 Mar 23:03:20 23:06:22 19° 62° (ENE) 23:09:25 437.525
QB50P2 29 Mar 23:13:03 23:13:36 10° 87° (E) 23:14:11 145.880/145.840
AIST 2D 29 Mar 23:14:23 23:16:27 15° 91° (E) 23:18:30 435.315
Tancredo 1 29 Mar 23:14:46 23:17:44 34° 4° (N) 23:20:42 437.200
FO-29 29 Mar 23:22:30 23:28:30 71° 103° (ESE) 23:33:51 435.910
ESTCUBE 1 29 Mar 23:24:51 23:29:19 81° 257° (WSW) 23:33:50 437.505/2401.250
50 SAT 29 Mar 23:25:52 23:28:17 18° 65° (ENE) 23:30:43 437.505
ISS 29 Mar 23:31:29 23:34:34 37° 6° (N) 23:37:40 437.550
BEESAT 3 29 Mar 23:38:33 23:41:38 21° 323° (NW) 23:44:45 437.485
DX 1 29 Mar 23:47:01 23:50:38 26° 65° (ENE) 23:54:17 434.975-435.025
BEESAT 2 30 Mar 00:01:57 00:05:21 26° 320° (NW) 00:08:48 435.950
NANOSAT C BR1 30 Mar 00:04:54 00:08:41 31° 96° (E) 00:12:24 145.865
PRISM 30 Mar 00:08:57 00:10:50 13° 301° (WNW) 00:12:44 437.425
EO-79 30 Mar 00:11:44 00:15:44 39° 98° (E) 00:19:41 145.935-145.965
TIGRISAT 30 Mar 00:17:20 00:20:36 21° 297° (WNW) 00:23:49 435.000
UKube-1 30 Mar 00:19:06 00:23:05 38° 68° (ENE) 00:27:06 .
RS-15 30 Mar 00:20:19 00:25:50 14° 268° (W) 00:31:16 29.354- 29.394
VELOX 1 30 Mar 00:21:20 00:25:42 66° 258° (WSW) 00:30:09 145.980
UNISAT 6 30 Mar 00:29:10 00:31:48 16° 300° (WNW) 00:34:24 437.425
SPROUT 30 Mar 00:37:44 00:41:56 51° 260° (W) 00:46:09 437.525
POLYITAN 1 30 Mar 00:40:54 00:45:10 81° 104° (ESE) 00:49:22 437.675
QB50P2 30 Mar 00:45:44 00:50:00 84° 285° (WNW) 00:54:13 145.880/145.840
AIST 2D 30 Mar 00:46:36 00:49:52 38° 289° (WNW) 00:53:07 435.315
Tancredo 1 30 Mar 00:50:57 00:54:08 78° 24° (NNE) 00:57:20 437.200
DUCHIFAT 1 30 Mar 00:52:04 00:56:19 88° 104° (ESE) 01:00:30 145.980
BUGSAT 1 30 Mar 00:53:17 00:57:02 31° 96° (E) 01:00:43 437.445
50 SAT 30 Mar 00:57:58 01:01:06 32° 263° (W) 01:04:17 437.505
ISS 30 Mar 01:08:00 01:11:18 89° 214° (SW) 01:14:36 437.550
FO-29 30 Mar 01:08:34 01:12:53 21° 305° (NW) 01:16:55 435.910
Gurwin Techsat 1B 30 Mar 01:18:23 01:20:37 13° 86° (E) 01:22:50 435.225
DX 1 30 Mar 01:22:40 01:26:41 35° 263° (W) 01:30:44 434.975-435.025
O/OREOS (USA 219) 30 Mar 01:24:59 01:29:23 42° 58° (ENE) 01:33:45 437.305
MOZHAYETS 4 30 Mar 01:37:54 01:38:25 10° 55° (NE) 01:38:56
NANOSAT C BR1 30 Mar 01:40:42 01:44:19 28° 294° (WNW) 01:47:54 145.865
EO-79 30 Mar 01:47:58 01:51:17 23° 296° (WNW) 01:54:34 145.935-145.965
BEESAT 30 Mar 01:50:14 01:54:23 30° 65° (ENE) 01:58:33 436.000
UKube-1 30 Mar 01:55:46 01:59:14 23° 266° (W) 02:02:43 .
ITUPSAT 1 30 Mar 02:08:36 02:13:08 43° 68° (ENE) 02:17:39 437.325
Oscar 19 30 Mar 02:11:11 02:16:19 60° 101° (ESE) 02:21:26 437.125/150
POLYITAN 1 30 Mar 02:18:32 02:20:20 13° 301° (WNW) 02:22:07 437.675
QB50P2 30 Mar 02:24:07 02:25:04 11° 303° (WNW) 02:26:00 145.880/145.840
Tancredo 1 30 Mar 02:27:34 02:29:58 19° 222° (SW) 02:32:20 437.200
BUGSAT 1 30 Mar 02:28:47 02:32:18 27° 294° (WNW) 02:35:46 437.445
DUCHIFAT 1 30 Mar 02:29:54 02:31:19 12° 302° (WNW) 02:32:44 145.980
ISS 30 Mar 02:45:12 02:47:24 17° 224° (SW) 02:49:35 437.550
Gurwin Techsat 1B 30 Mar 02:55:59 03:01:21 86° 104° (ESE) 03:06:41 435.225
AO-85 30 Mar 02:56:56 02:59:16 15° 32° (NNE) 03:01:38 145.980
O/OREOS (USA 219) 30 Mar 03:04:50 03:08:35 25° 257° (WSW) 03:12:19 437.305
MOZHAYETS 4 30 Mar 03:10:10 03:14:44 71° 73° (ENE) 03:19:18
BEESAT 30 Mar 03:27:42 03:32:04 35° 263° (W) 03:36:29 436.000
AO-7 30 Mar 03:45:04 03:52:43 39° 98° (E) 04:00:18 .
ITUPSAT 1 30 Mar 03:47:12 03:51:07 25° 266° (W) 03:55:03 437.325
Oscar 19 30 Mar 03:51:20 03:55:14 22° 300° (WNW) 03:59:07 437.125/150
KKS-1 30 Mar 04:00:09 04:04:31 54° 71° (ENE) 04:08:54 437.445
ITAMSAT 1 30 Mar 04:06:32 04:11:44 67° 103° (ESE) 04:16:52 435.822/435.867
CUBESAT XI-V 30 Mar 04:12:49 04:17:17 54° 71° (ENE) 04:21:46 437.345
STARS 30 Mar 04:25:29 04:29:43 45° 70° (ENE) 04:33:58 437.465
AO-85 30 Mar 04:36:21 04:40:17 83° 53° (NE) 04:44:18 145.980
BEESAT 3 30 Mar 04:37:00 04:39:46 17° 34° (NE) 04:42:30 437.485
Gurwin Techsat 1B 30 Mar 04:37:19 04:40:37 17° 304° (WNW) 04:43:53 435.225
MOZHAYETS 4 30 Mar 04:49:59 04:52:24 14° 271° (W) 04:54:49
BEESAT 2 30 Mar 05:01:35 05:03:58 15° 31° (NNE) 05:06:20 435.950
M-CUBED/EXP-1 PRIME 30 Mar 05:03:34 05:06:46 24° 58° (ENE) 05:10:09 437.505
DOVE 4 30 Mar 05:18:28 05:20:31 12° 84° (E) 05:22:33 437.250
AO-7 30 Mar 05:37:44 05:45:46 56° 298° (WNW) 05:53:46 .
KKS-1 30 Mar 05:38:22 05:41:24 18° 269° (W) 05:44:27 437.445
ITAMSAT 1 30 Mar 05:46:58 05:50:42 20° 301° (WNW) 05:54:26 435.822/435.867
XW-2F 30 Mar 05:48:57 05:49:37 10° 88° (E) 05:50:16 145.980 - 146.000
CUBESAT XI-V 30 Mar 05:51:49 05:54:59 18° 269° (W) 05:58:11 437.345
NO-84 30 Mar 05:55:03 05:57:41 33° 138° (SE) 06:00:18 435.350 FM
LilacSat-2 30 Mar 05:56:18 05:58:24 14° 90° (E) 06:00:29 437.200
YUBILEINY 30 Mar 05:57:28 06:03:26 21° 76° (ENE) 06:09:22 435.215
NUDT-PHONESAT 30 Mar 06:01:44 06:03:17 12° 89° (E) 06:04:49 437.300
STARS 30 Mar 06:02:56 06:06:16 21° 267° (W) 06:09:38 437.465
KAITUO 1B 30 Mar 06:13:24 06:15:52 17° 92° (E) 06:18:19 145.475/437.950
BEESAT 3 30 Mar 06:13:51 06:17:55 86° 233° (SW) 06:21:55 437.485
XW-2D 30 Mar 06:15:28 06:18:30 22° 94° (E) 06:21:29 145.860 - 145.880
AO-85 30 Mar 06:19:00 06:20:05 11° 250° (WSW) 06:21:10 145.980
XW-2B 30 Mar 06:21:25 06:24:34 25° 95° (E) 06:27:43 145.730 - 145.750
CUTE-I 30 Mar 06:24:51 06:29:31 29° 94° (E) 06:34:08 437.470
XW-2C 30 Mar 06:31:36 06:35:01 33° 97° (E) 06:38:26 145.795 - 145.815
M-CUBED/EXP-1 PRIME 30 Mar 06:37:25 06:41:00 37° 258° (WSW) 06:44:54 437.505
BEESAT 2 30 Mar 06:38:23 06:42:28 72° 52° (NE) 06:46:30 435.950
STRAND 1 30 Mar 06:40:09 06:45:05 48° 68° (ENE) 06:50:01 437.568
DOVE 4 30 Mar 06:53:39 06:59:02 82° 105° (ESE) 07:04:13 437.250
HO-68 30 Mar 07:18:16 07:24:00 25° 92° (E) 07:29:43 435.675
XW-2F 30 Mar 07:20:29 07:24:11 66° 286° (WNW) 07:27:53 145.980 - 146.000
LilacSat-2 30 Mar 07:29:19 07:32:58 48° 287° (WNW) 07:36:36 437.200
AO-7 30 Mar 07:32:06 07:36:49 17° 321° (NW) 07:41:33 .
NO-84 30 Mar 07:32:35 07:35:12 32° 337° (NNW) 07:37:51 435.350 FM
NUDT-PHONESAT 30 Mar 07:33:56 07:37:33 54° 287° (WNW) 07:41:08 437.300
KAITUO 1B 30 Mar 07:46:36 07:50:04 38° 289° (WNW) 07:53:30 145.475/437.950
XW-2D 30 Mar 07:49:25 07:52:43 29° 291° (WNW) 07:55:59 145.860 - 145.880
YUBILEINY 30 Mar 07:50:14 07:59:00 89° 99° (E) 08:07:46 435.215
XW-2B 30 Mar 07:55:33 07:58:44 26° 292° (WNW) 08:01:54 145.730 - 145.750
FO-29 30 Mar 07:56:39 07:59:18 12° 47° (NE) 08:01:52 435.910
UWE-3 30 Mar 08:02:03 08:04:10 13° 88° (E) 08:06:15 435.000/436.395/437.385
SEEDS 30 Mar 08:03:23 08:07:08 31° 96° (E) 08:10:52 437.485
CUTE-I 30 Mar 08:04:40 08:09:42 43° 293° (WNW) 08:14:43 437.470
XW-2C 30 Mar 08:06:12 08:09:03 21° 294° (WNW) 08:11:53 145.795 - 145.815
XW-2A 30 Mar 08:15:00 08:18:24 81° 102° (ESE) 08:21:45 145.665 - 145.685
BEESAT 2 30 Mar 08:17:37 08:19:42 14° 250° (WSW) 08:21:46 435.950
CUTE 1.7 + AOD 2 30 Mar 08:17:48 08:22:01 66° 101° (E) 08:26:14 437.475
UNISAT 6 30 Mar 08:19:10 08:20:55 12° 57° (ENE) 08:22:40 437.425
STRAND 1 30 Mar 08:20:16 08:24:28 25° 267° (W) 08:28:43 437.568
DOVE 4 30 Mar 08:32:37 08:36:00 17° 302° (WNW) 08:39:22 437.250
ZACube-1 30 Mar 08:33:00 08:35:42 16° 90° (E) 08:38:23 437.345
PCSat 30 Mar 08:36:23 08:41:15 35° 112° (ESE) 08:46:09 145.827
CUBEBUG 2 30 Mar 08:42:52 08:47:12 56° 100° (E) 08:51:22 437.445
AO-73 30 Mar 08:58:17 09:01:53 27° 94° (E) 09:05:25 145.935
HO-68 30 Mar 09:05:12 09:12:21 72° 291° (WNW) 09:19:28 435.675
AAUSAT CUBESAT 2 30 Mar 09:10:39 09:14:50 81° 102° (ESE) 09:19:00 437.432
NO-84 30 Mar 09:11:22 09:13:23 17° 359° (N) 09:15:26 435.350 FM
PRISM 30 Mar 09:23:45 09:27:49 82° 76° (ENE) 09:31:57 437.425
FO-29 30 Mar 09:35:38 09:42:56 50° 67° (ENE) 09:49:38 435.910
UWE-3 30 Mar 09:36:51 09:41:07 64° 286° (WNW) 09:45:15 435.000/436.395/437.385
SEEDS 30 Mar 09:39:11 09:42:45 27° 293° (WNW) 09:46:19 437.485
TIGRISAT 30 Mar 09:40:50 09:45:25 60° 72° (ENE) 09:49:59 435.000
YUBILEINY 30 Mar 09:50:27 09:57:05 23° 301° (WNW) 10:03:46 435.215
UNISAT 6 30 Mar 09:52:13 09:56:54 82° 76° (ENE) 10:01:33 437.425
Oscar 11 30 Mar 09:52:46 09:57:06 87° 99° (E) 10:01:25 .
DELFI C3 30 Mar 09:53:15 09:56:44 28° 95° (E) 10:00:11 145.870
AIST 2D 30 Mar 09:53:48 09:54:06 10° 61° (ENE) 09:54:24 435.315
CUTE 1.7 + AOD 2 30 Mar 09:55:00 09:57:21 15° 299° (WNW) 09:59:43 437.475
POLYITAN 1 30 Mar 10:03:40 10:05:02 11° 57° (ENE) 10:06:24 437.675
QB50P2 30 Mar 10:07:44 10:09:48 13° 59° (ENE) 10:11:51 145.880/145.840
ZACube-1 30 Mar 10:08:14 10:12:20 50° 288° (WNW) 10:16:20 437.345
DUCHIFAT 1 30 Mar 10:13:52 10:15:29 12° 58° (ENE) 10:17:04 145.980
PCSat 30 Mar 10:19:24 10:24:33 43° 312° (NW) 10:29:45 145.827
CUBEBUG 2 30 Mar 10:20:30 10:23:23 17° 299° (WNW) 10:26:12 437.445
RS-15 30 Mar 10:23:27 10:30:52 19° 95° (E) 10:38:22 29.354- 29.394
AO-73 30 Mar 10:34:26 10:38:07 30° 293° (WNW) 10:41:45 145.935
